Theta_e
316 313 312 307 296 291 286 288 291 293 292 295 298 298 295 294 297 293 305 308 309 323 332 330 342 342 343 345 348 348 345 347 347 348 348 349 348 348 348 348 349 347 346 346 345 344 343 346 347
314 314 309 299 290 285 286 290 291 293 296 297 297 294 294 293 299 301 301 306 308 311 316 324 334 340 341 343 343 345 345 346 346 347 348 349 348 348 348 348 349 349 347 347 346 345 344 346 347
313 310 303 293 286 286 287 289 291 294 296 294 295 296 294 294 298 299 302 305 305 306 310 320 331 332 333 334 336 337 338 342 343 344 345 346 347 347 347 346 347 347 346 346 347 346 347 347 347
306 304 297 289 286 288 289 291 293 295 294 296 294 292 296 298 298 300 302 303 299 301 305 312 323 325 326 327 330 332 334 336 337 338 340 342 343 343 344 345 345 346 345 345 346 345 348 348 348
302 296 291 287 287 291 290 293 293 293 292 292 293 291 292 297 299 298 297 300 298 298 301 304 316 319 319 319 321 322 323 326 330 333 335 335 336 340 341 342 343 344 344 345 345 347 347 347 347
298 294 288 285 286 289 291 293 293 291 292 293 293 291 291 295 295 295 296 295 296 296 300 301 307 313 313 314 315 316 317 319 322 325 328 330 334 335 337 339 341 342 342 343 345 346 346 346 346
295 292 288 286 288 289 292 294 291 291 292 291 294 289 291 291 293 294 293 293 294 295 296 297 298 303 308 309 310 311 312 313 316 319 318 323 328 331 333 334 336 339 342 343 343 343 344 345 345
296 293 290 287 288 289 292 293 293 292 291 293 293 288 286 291 293 293 292 292 293 294 294 294 295 297 298 298 307 307 308 308 311 312 314 316 317 320 326 328 331 335 337 339 340 341 341 342 342
298 292 288 287 290 290 293 292 292 291 290 289 290 290 291 293 292 290 289 289 291 294 294 293 294 294 296 297 300 302 304 305 307 307 309 310 309 313 315 316 318 324 329 335 337 338 339 337 336
294 290 291 292 291 292 293 292 292 290 288 287 287 289 290 290 289 288 287 287 288 289 291 292 292 292 294 297 295 295 297 297 300 303 303 305 307 311 308 310 313 312 315 319 332 335 335 331 331
292 289 294 294 295 295 294 292 292 290 288 288 286 287 288 288 287 287 286 286 286 286 288 290 291 291 291 292 293 292 293 293 296 299 301 302 305 305 302 305 305 305 308 313 316 324 328 329 329
291 294 295 297 297 294 293 294 290 290 291 292 289 288 287 286 286 286 286 285 285 286 287 289 289 290 289 290 290 289 290 292 292 296 299 300 300 299 298 300 303 302 303 313 310 308 309 323 327
292 293 296 296 296 294 295 292 291 289 287 289 288 287 286 285 286 286 287 286 285 286 286 287 287 288 289 289 288 289 289 290 291 292 295 298 296 297 297 297 301 299 305 306 305 304 303 305 314
293 294 295 294 295 295 294 289 289 289 287 286 287 285 285 285 286 284 285 284 284 285 285 286 287 288 288 288 288 288 289 289 290 290 292 295 295 295 293 294 298 299 301 303 301 302 302 301 304
294 291 292 292 294 293 293 289 289 289 287 286 285 284 284 285 285 285 285 285 283 284 285 286 288 288 287 287 288 288 289 289 289 290 292 293 295 292 292 292 295 298 298 300 299 299 301 300 301
290 288 286 290 292 291 291 287 291 289 286 285 284 282 283 284 284 284 284 284 283 284 285 285 288 287 287 287 287 288 288 288 289 289 289 290 291 291 290 290 292 296 297 298 297 297 297 298 298
286 284 284 288 292 290 289 287 289 288 287 285 283 282 283 282 282 283 284 283 283 283 284 285 286 286 287 287 287 287 286 286 287 287 288 288 289 288 288 288 291 293 295 297 295 296 296 296 297
285 283 284 283 287 289 287 288 289 287 286 286 283 281 280 281 282 284 283 283 283 283 284 284 285 286 286 286 285 285 285 285 285 285 286 286 286 286 286 287 286 287 290 292 295 296 296 297 298
284 283 283 286 289 287 287 289 291 287 285 284 281 281 280 281 283 283 283 282 282 282 283 283 284 284 284 283 283 283 281 282 282 283 285 285 285 285 284 284 284 284 284 286 291 296 294 295 296
285 283 283 286 287 287 286 285 290 287 287 286 285 282 281 280 281 282 282 282 281 282 282 283 283 284 284 283 282 281 280 280 281 283 283 283 284 283 283 282 281 282 282 283 286 290 292 294 296
284 283 282 284 285 285 282 279 285 286 287 287 286 284 282 281 281 280 281 281 280 281 281 282 283 283 283 282 282 281 280 279 278 279 280 281 282 282 281 281 281 282 282 284 288 290 292 292 293
282 286 284 284 281 277 281 277 280 282 283 285 285 280 281 280 281 280 280 281 281 281 281 282 282 282 283 281 280 278 276 276 277 278 279 279 280 280 280 280 281 281 282 281 283 287 288 293 290
285 285 282 281 280 277 278 275 278 279 281 284 283 282 281 281 281 280 280 282 282 282 280 280 281 281 282 280 279 278 276 277 277 277 277 277 279 280 279 279 280 278 278 279 280 283 287 291 291
287 283 281 278 276 272 276 277 276 278 281 282 281 283 280 280 279 280 281 282 281 280 280 280 279 280 281 279 278 277 275 275 275 275 275 276 277 278 278 279 277 276 277 278 280 282 284 286 289
284 281 277 274 271 274 275 273 282 285 283 282 282 281 280 280 279 279 279 280 280 279 279 280 279 278 279 278 276 275 275 274 274 274 275 275 275 276 276 276 276 275 276 278 278 278 283 286 285
282 283 278 271 271 277 274 275 280 282 279 279 280 282 280 279 279 279 279 279 279 279 279 278 278 277 277 276 275 274 274 274 274 274 274 274 274 275 276 275 275 276 275 275 277 279 279 284 284
281 279 282 277 262 267 277 278 282 278 278 276 278 278 277 278 278 279 279 279 278 278 278 277 276 276 275 274 273 272 272 272 272 273 274 274 275 275 275 275 274 274 274 274 274 274 275 278 283
281 283 277 276 268 265 275 277 282 280 279 275 275 276 278 278 278 278 278 278 278 278 277 276 275 274 274 273 272 272 272 272 272 272 272 273 274 274 273 273 273 273 273 273 273 274 276 278 280
278 278 277 278 277 271 267 279 283 284 281 276 277 278 278 278 278 278 278 278 278 277 275 274 273 273 272 272 271 271 271 271 271 271 272 272 273 273 272 272 272 272 272 272 272 272 272 273 276
281 281 281 276 273 273 275 280 280 283 282 278 278 278 278 278 278 277 277 277 276 275 274 273 272 271 271 271 270 270 269 269 269 270 271 272 271 272 271 271 271 271 271 271 271 271 272 273 276
Wind_Speed
3 2 3 5 5 7 2 0 1 2 1 4 5 14 12 2 3 5 3 11 14 12 12 13 17 16 16 16 11 9 6 6 8 11 10 9 11 12 13 12 10 11 10 11 11 11 13 11 9
2 2 5 3 7 4 4 3 2 3 5 10 8 2 9 4 4 4 6 12 10 7 8 13 17 18 18 19 18 19 15 12 13 13 12 13 13 13 14 14 12 13 13 13 14 14 13 11 10
2 4 4 5 4 4 4 3 4 2 4 3 6 7 4 5 3 4 6 9 8 11 10 13 20 21 21 22 21 21 21 20 19 16 17 17 16 15 15 14 15 15 15 16 15 15 14 13 11
3 5 5 6 2 2 4 3 4 6 3 8 6 9 5 4 1 5 8 7 7 9 9 14 21 22 23 24 24 23 23 21 20 20 19 19 19 19 18 17 16 16 18 17 17 16 15 14 13
5 3 5 4 1 2 1 1 5 3 4 3 1 5 5 3 6 5 4 7 9 8 10 11 23 23 24 25 24 23 23 22 21 20 19 19 20 19 18 20 19 18 18 19 19 17 15 14 13
4 3 5 3 2 2 3 2 3 3 4 4 7 6 3 2 2 4 5 7 6 7 6 7 14 20 22 25 25 24 25 24 24 24 24 24 23 21 19 19 21 21 20 19 19 18 17 15 14
6 4 4 4 6 1 3 2 4 5 4 3 8 5 5 3 1 1 4 5 6 6 7 7 7 10 14 20 23 24 25 25 25 24 26 25 23 23 23 23 21 22 22 20 19 18 17 17 15
6 5 3 2 5 3 2 3 3 3 3 1 1 7 7 6 3 2 5 6 7 7 7 8 7 7 7 6 19 21 22 23 23 24 24 22 22 23 22 22 22 25 25 22 19 19 19 19 18
3 5 2 3 7 4 2 4 3 1 6 3 4 4 6 8 4 3 5 6 5 7 7 7 8 9 8 8 10 12 16 18 18 17 21 15 10 12 18 22 27 29 28 26 24 22 19 17 17
5 4 5 2 4 5 3 4 9 4 4 3 4 5 5 4 4 8 5 5 6 6 7 6 7 7 7 7 8 7 8 6 6 7 9 9 11 10 14 14 21 25 25 28 25 22 21 13 8
1 3 4 3 4 5 3 4 4 9 6 9 13 11 7 6 6 7 4 5 4 4 5 7 7 7 7 5 5 3 3 4 4 7 6 5 7 8 9 7 8 9 16 10 14 16 9 11 8
2 1 3 5 3 3 5 7 3 5 4 4 14 12 7 8 7 6 6 4 3 4 4 6 6 5 5 3 3 3 3 4 5 6 7 5 5 6 7 7 7 6 8 10 10 9 15 17 13
1 2 3 5 6 5 5 2 5 6 1 9 11 7 9 8 8 6 6 5 4 5 4 5 5 6 5 5 4 5 5 4 5 7 8 6 8 6 7 8 7 5 7 8 9 10 11 14 19
3 3 6 4 6 6 5 1 2 6 6 8 10 10 9 9 8 5 5 4 3 2 3 3 4 5 6 5 6 4 4 4 4 4 5 7 7 7 10 10 9 7 6 7 5 9 10 11 13
3 7 8 3 5 5 6 4 11 8 10 12 10 9 9 8 8 8 7 6 3 2 1 4 3 4 5 5 4 4 4 4 4 4 6 7 6 10 11 10 10 9 9 10 7 8 9 10 10
5 3 5 3 5 1 5 13 8 13 17 15 11 9 10 9 9 7 7 6 4 4 3 3 2 3 3 3 3 4 4 4 4 5 4 6 10 9 11 9 9 9 9 10 9 9 9 9 10
6 3 3 10 5 3 6 10 2 10 13 12 12 11 9 8 7 7 8 6 5 5 3 2 2 3 3 4 3 4 4 4 4 4 6 10 12 14 11 10 9 12 11 8 8 12 8 9 10
4 5 5 7 4 4 5 17 6 11 14 18 12 10 9 9 10 9 9 6 5 5 3 2 3 4 3 2 3 2 3 4 4 4 5 10 11 13 13 12 13 13 11 10 9 11 9 9 9
2 4 7 9 6 4 10 16 21 11 11 12 11 13 13 13 8 8 7 6 6 5 3 2 3 4 1 2 4 6 5 5 4 4 6 8 9 10 12 10 11 11 12 14 16 11 12 11 5
4 4 9 10 3 6 10 13 19 10 12 21 21 18 16 10 9 9 8 6 3 4 1 3 3 3 2 1 2 1 2 3 4 3 4 6 8 10 10 13 12 13 12 14 15 14 12 11 5
5 6 6 9 6 6 9 8 14 4 12 8 12 12 14 16 13 9 9 7 5 4 3 2 4 4 2 3 2 2 4 3 2 5 6 6 10 9 10 13 13 13 12 12 13 14 17 13 8
6 5 3 5 5 4 4 13 5 5 13 12 13 14 17 13 9 9 9 8 7 5 4 2 5 5 3 5 3 3 2 5 5 7 8 9 10 10 10 13 13 13 10 16 14 13 16 15 13
8 2 2 2 4 4 5 5 7 2 10 17 15 19 17 16 14 11 10 8 7 5 4 2 5 6 5 5 4 4 5 6 7 7 12 12 10 10 11 13 11 13 11 14 17 18 15 15 13
4 2 3 4 3 3 6 8 5 7 9 7 5 16 16 16 11 10 8 8 5 3 2 2 5 5 6 5 6 6 7 8 9 10 10 10 10 10 11 13 10 14 13 15 13 16 19 16 15
4 5 5 7 3 10 3 4 15 11 11 9 8 12 15 14 12 10 9 7 6 5 4 3 4 7 6 6 6 6 7 8 9 9 9 12 11 11 12 13 12 13 15 14 17 18 19 15 13
6 8 8 7 5 10 1 12 9 5 6 7 8 9 11 13 11 10 9 8 7 6 5 3 5 7 6 6 7 6 7 6 7 9 10 10 11 12 15 14 14 16 17 18 17 14 13 16 13
5 5 1 3 3 4 7 10 8 5 8 3 6 9 14 15 14 11 8 8 7 6 5 3 5 6 6 6 6 7 6 7 10 12 12 11 13 13 16 16 17 17 17 18 20 15 16 17 16
4 6 5 3 2 7 9 15 18 8 11 5 7 12 14 12 11 9 8 7 6 6 3 3 5 7 6 7 5 8 8 9 10 11 14 15 15 17 17 17 18 18 17 17 18 15 14 16 14
3 4 2 3 6 7 3 18 8 9 11 12 15 14 15 16 14 10 8 7 6 3 2 5 6 7 9 7 9 9 9 10 11 12 14 15 16 17 18 18 20 19 18 17 16 17 19 19 18
3 11 14 7 8 4 4 29 6 9 9 11 14 14 13 12 11 9 8 7 5 4 4 6 5 6 8 8 9 10 10 11 11 12 14 15 17 17 19 19 19 19 19 17 18 19 16 17 17
Wind_Direction
48 83 88 45 57 66 346 177 311 132 83 30 45 92 116 114 58 159 331 3 347 355 4 355 2 20 20 6 343 297 257 268 283 288 288 283 281 284 288 289 288 283 282 288 286 284 287 286 280
15 117 44 86 82 63 283 272 127 173 138 122 72 52 44 65 32 70 22 336 335 349 8 13 22 22 18 17 23 20 4 333 301 292 284 284 287 282 280 286 290 290 292 291 290 288 283 280 278
115 54 81 90 107 152 183 214 205 121 62 107 104 48 66 338 310 83 340 324 327 15 7 13 30 37 34 28 24 21 11 6 358 339 315 298 290 282 282 282 286 286 288 288 287 286 285 280 273
83 15 35 77 95 211 186 189 224 139 81 56 107 72 60 5 354 19 331 335 29 18 9 19 36 37 37 32 28 23 20 15 9 360 352 342 321 310 301 293 286 283 285 285 283 283 281 280 274
36 59 64 87 153 249 214 239 179 110 101 58 89 134 95 41 18 14 349 22 27 6 5 18 30 32 33 31 28 24 19 16 12 3 359 355 347 333 312 301 291 285 283 283 283 279 277 280 280
41 86 63 155 208 286 296 188 131 83 99 151 81 97 128 93 71 339 12 33 19 25 10 16 23 28 29 29 24 21 19 14 10 9 5 356 348 345 340 329 302 288 283 278 279 280 273 273 269
110 86 162 134 170 209 208 136 118 123 103 65 147 99 161 140 304 350 52 47 29 21 31 22 24 24 27 29 26 21 18 14 13 13 6 358 353 351 346 338 330 315 286 278 275 275 274 270 262
103 89 97 117 181 206 276 82 86 69 154 61 102 174 187 181 180 188 56 36 34 26 29 21 19 23 15 21 23 23 21 18 12 7 4 2 0 350 349 346 334 326 315 291 272 272 270 270 263
120 62 116 162 155 201 250 139 28 43 95 44 328 129 145 140 148 102 43 20 21 27 31 20 18 13 7 16 9 11 12 12 13 9 1 357 356 345 359 350 347 347 337 318 300 276 263 261 263
78 96 195 215 174 182 215 175 156 126 135 57 41 46 87 97 103 84 73 46 34 23 11 25 22 12 2 2 359 353 352 351 352 353 359 360 347 355 350 343 347 347 339 338 322 308 287 266 258
188 153 182 225 206 165 209 143 147 130 234 195 183 170 166 142 121 119 86 66 55 18 21 18 20 7 2 346 341 334 341 342 341 346 349 351 351 349 345 336 340 344 337 334 340 324 301 285 253
356 47 191 174 232 170 187 131 147 212 245 183 155 159 150 149 139 126 113 113 104 65 38 17 16 1 333 315 322 316 348 350 349 331 334 347 343 340 340 334 325 338 331 336 340 336 333 308 270
141 292 302 161 185 232 140 174 193 230 195 127 130 142 150 149 155 150 140 89 61 48 22 360 5 6 340 346 341 349 347 354 337 339 334 338 343 331 331 326 317 315 322 326 328 327 326 314 315
319 284 270 261 215 194 195 136 33 192 153 130 151 168 167 164 169 146 137 128 85 84 49 341 6 9 353 355 346 336 334 327 339 334 321 330 334 332 334 326 316 305 313 306 305 315 316 317 309
339 332 329 218 193 205 136 263 235 151 166 172 182 176 176 181 168 169 159 146 119 108 55 14 4 20 0 333 322 325 304 342 350 346 329 323 334 333 326 323 314 301 307 300 298 302 302 306 309
21 52 359 309 134 196 131 262 257 167 170 192 191 186 183 186 180 169 149 128 116 101 67 354 351 336 343 312 296 301 337 348 346 344 334 337 334 334 324 316 315 301 294 302 298 302 297 303 308
14 280 271 314 200 123 186 268 258 174 189 198 198 194 193 190 185 173 161 151 136 117 93 9 320 311 321 327 325 309 4 7 348 339 338 341 337 337 333 321 321 322 306 284 287 293 281 291 300
264 289 262 239 284 204 236 268 251 200 199 210 197 193 198 198 199 178 168 160 128 111 96 334 305 293 298 312 282 326 4 3 345 335 329 339 334 331 330 325 323 319 308 299 285 271 275 279 287
205 225 244 261 233 250 234 253 269 209 217 222 203 202 205 203 201 174 166 161 121 109 83 313 306 303 317 271 347 8 356 326 329 316 326 331 324 324 323 310 308 312 301 297 297 275 277 275 257
217 270 269 281 280 187 266 249 268 187 221 215 210 202 201 192 184 178 178 169 131 157 205 297 322 315 304 353 1 14 298 272 281 292 308 303 316 310 314 317 308 303 297 293 283 283 275 264 235
221 196 244 239 331 278 312 259 244 233 249 232 220 205 205 194 184 182 186 177 159 181 222 289 317 310 306 357 337 323 285 283 289 318 309 306 309 305 314 303 297 300 298 292 298 298 272 262 250
273 208 259 288 345 258 32 291 260 237 257 223 215 198 200 186 185 181 183 181 182 199 210 266 332 322 309 351 342 335 289 309 305 304 298 299 314 310 306 296 294 294 310 297 294 297 297 267 257
223 106 225 232 253 325 218 255 256 66 270 255 219 212 200 187 185 182 182 182 190 184 211 263 318 313 311 323 315 303 298 294 303 298 300 317 314 304 302 294 298 302 297 291 290 289 282 289 258
112 43 50 52 48 312 234 194 239 194 215 254 221 211 191 184 179 179 181 174 196 204 225 288 318 306 301 311 303 283 281 299 301 304 314 309 305 301 299 289 293 299 292 283 290 293 285 277 290
98 70 327 329 355 234 166 238 254 246 246 235 235 201 197 178 176 177 174 184 209 224 234 291 323 300 301 291 289 285 271 267 282 298 299 296 298 302 297 291 291 295 282 292 290 286 273 285 284
170 165 165 242 234 283 89 244 254 238 287 288 266 206 181 176 178 180 183 192 207 224 223 287 307 289 284 285 285 275 266 281 287 286 289 288 289 291 293 292 290 285 295 288 279 279 293 283 272
172 179 170 74 90 357 245 283 288 285 283 292 204 166 186 185 184 182 184 192 202 214 225 271 287 275 280 279 273 278 281 293 291 287 288 288 285 288 291 294 290 286 288 289 290 283 284 286 288
154 157 79 14 254 266 263 277 253 245 261 183 219 211 198 187 186 186 186 191 204 197 236 292 272 270 293 295 292 303 296 288 289 292 292 289 290 292 291 290 289 284 282 281 279 280 277 278 279
132 211 131 149 164 200 296 274 193 199 214 197 215 213 199 197 187 183 188 190 195 185 275 287 292 322 316 312 302 294 296 299 296 289 292 292 291 291 291 292 289 285 282 279 274 277 277 274 275
244 202 174 180 228 249 154 261 174 187 221 182 213 208 203 199 186 180 182 180 182 230 267 284 323 301 299 297 296 300 303 297 293 292 292 293 292 292 292 291 287 285 280 276 272 272 272 276 270